Regional Weather Roundup
Issued by NWS

Home | Current Version | Previous Version | Graphics & Text | Print | Product List | Glossary On
Versions: 1 2 3 4 5 6 7 8 9 10 11 12 13 14 15 16 17 18 19 20 21 22 23 24 25 26 27 28 29 30 31 32 33 34 35 36 37 38 39 40 41 42 43 44 45 46 47 48 49 50
000
ASUS45 KCYS 121010
RWRWY

WYOMING REGIONAL WEATHER ROUNDUP
NATIONAL WEATHER SERVICE CHEYENNE WY
400 AM MDT SAT JUL 12 2014

NOTE:  "FAIR" INDICATES FEW OR NO CLOUDS BELOW 12,000 FEET
WITH NO SIGNIFICANT WEATHER AND/OR OBSTRUCTIONS TO VISIBILITY.

WYZ001-121100-
YELLOWSTONE NATIONAL PARK

CITY           SKY/WX    TMP DP  RH WIND       PRES   REMARKS
LK YELLOWSTONE   N/A     47  45  93 CALM      30.43S
W YELLOWSTONE  NOT AVBL

$$
WYZ002>013-054>058-071-098>099-121100-
NORTHERN WYOMING

CITY           SKY/WX    TMP DP  RH WIND       PRES   REMARKS
JACKSON        MOCLDY    48  48 100 CALM      30.34S
CODY           PTCLDY    61  50  67 CALM      30.23R
GREYBULL       MOCLDY    65  57  75 E7        30.15S
WORLAND        MOCLDY    66  54  65 SE8       30.17R
SHERIDAN       MOCLDY    60  56  86 NW3       30.15R
BUFFALO        MOCLDY    62  47  57 NW5       30.19R
GILLETTE       PTCLDY    58  56  93 S9        30.17S
HULETT         FAIR      61  55  82 MISG      30.17
NEWCASTLE      FAIR      59  59 100 N5        30.19

$$
WYZ014>020-022>026-101>103-121100-
CENTRAL WYOMING

CITY           SKY/WX    TMP DP  RH WIND       PRES   REMARKS
BIG PINEY      PTCLDY    49  44  83 NW8       30.36S
PINEDALE       PTSUNNY   50  46  87 SW3       30.38R
DUBOIS         FAIR      46  45  93 W7        30.37S
LANDER         CLOUDY    59  55  87 W5        30.25S
RIVERTON       CLOUDY    60  58  92 SW5       30.27R
CASPER         CLOUDY    57  54  89 NW7       30.22S
DOUGLAS        CLOUDY    61  56  83 CALM      30.19F

$$
WYZ021-027>030-104>119-121100-
SOUTHERN WYOMING

CITY           SKY/WX    TMP DP  RH WIND       PRES   REMARKS
EVANSTON       CLEAR     58  52  80 NE8       30.34R
KEMMERER       SUNNY     52  46  82 N8        30.37R
FORT BRIDGER     N/A     55  52  88 N6        30.37R
ROCK SPRINGS   CLOUDY    58  51  78 NE7       30.31F
DIXON          PTSUNNY   61  57  87 E14G22    30.30F
RAWLINS        CLOUDY    59  55  87 NE5       30.30S
SARATOGA       PTSUNNY   55  54  94 N5        30.33R
LARAMIE        MOCLDY    57  53  86 S6        30.29S
CHEYENNE       MOCLDY    59  57  93 NE5       30.23F
TORRINGTON     CLOUDY    62  60  93 S5        30.15S

$$


USA.gov is the U.S. government's official web portal to all federal, state and local government web resources and services.